Wetterdaten: Montag, 03.08.2015
Datum Zeit Auen-Temp. Temp gefhlt Luftfeuchte Luftdruck Regen Wind Richtung Richtung Taupunkt Windben
03.08.2015 00:00 12,3 C 12,0 C 85 % 1014,2 hPa 0,0 mm 0,0 km/h (0 Bft) NO 45 9,9 C 0,0 km/h (0 Bft)
03.08.2015 00:05 12,4 C 12,1 C 85 % 1014,2 hPa 0,0 mm 0,0 km/h (0 Bft) N-NO 22 9,9 C 0,0 km/h (0 Bft)
03.08.2015 00:10 12,0 C 11,8 C 85 % 1014,1 hPa 0,0 mm 0,0 km/h (0 Bft) N-NO 22 9,6 C 0,0 km/h (0 Bft)
03.08.2015 00:15 11,9 C 11,7 C 85 % 1014,1 hPa 0,0 mm 0,0 km/h (0 Bft) NW 315 9,5 C 0,0 km/h (0 Bft)
03.08.2015 00:20 11,9 C 11,7 C 85 % 1014,1 hPa 0,0 mm 0,0 km/h (0 Bft) NW 315 9,5 C 0,0 km/h (0 Bft)
03.08.2015 00:25 11,9 C 11,6 C 86 % 1014,1 hPa 0,0 mm 0,0 km/h (0 Bft) NW 315 9,6 C 0,0 km/h (0 Bft)
03.08.2015 00:30 11,7 C 11,5 C 86 % 1014,0 hPa 0,0 mm 0,0 km/h (0 Bft) NO 45 9,4 C 0,0 km/h (0 Bft)
03.08.2015 00:35 11,5 C 11,4 C 86 % 1014,0 hPa 0,0 mm 0,0 km/h (0 Bft) NW 315 9,2 C 0,0 km/h (0 Bft)
03.08.2015 00:40 11,4 C 11,3 C 86 % 1014,0 hPa 0,0 mm 0,0 km/h (0 Bft) W-SW 247 9,1 C 0,0 km/h (0 Bft)
03.08.2015 00:45 11,6 C 11,4 C 86 % 1014,0 hPa 0,0 mm 0,0 km/h (0 Bft) NW 315 9,3 C 0,0 km/h (0 Bft)
03.08.2015 00:50 11,4 C 11,3 C 86 % 1014,1 hPa 0,0 mm 0,0 km/h (0 Bft) O-NO 67 9,1 C 0,0 km/h (0 Bft)
03.08.2015 00:55 11,3 C 11,2 C 86 % 1014,1 hPa 0,0 mm 0,0 km/h (0 Bft) NO 45 9,0 C 0,0 km/h (0 Bft)
03.08.2015 01:00 11,2 C 11,1 C 86 % 1014,1 hPa 0,0 mm 0,0 km/h (0 Bft) NW 315 8,9 C 0,0 km/h (0 Bft)
03.08.2015 01:05 11,2 C 11,1 C 86 % 1014,1 hPa 0,0 mm 0,0 km/h (0 Bft) N-NO 22 8,9 C 0,0 km/h (0 Bft)
03.08.2015 01:10 11,1 C 11,0 C 86 % 1013,8 hPa 0,0 mm 0,0 km/h (0 Bft) W-NW 292 8,8 C 0,0 km/h (0 Bft)
03.08.2015 01:15 11,1 C 11,0 C 86 % 1013,8 hPa 0,0 mm 0,0 km/h (0 Bft) SW 225 8,8 C 0,0 km/h (0 Bft)
03.08.2015 01:20 11,1 C 10,9 C 87 % 1013,8 hPa 0,0 mm 0,0 km/h (0 Bft) S 180 9,0 C 0,0 km/h (0 Bft)
03.08.2015 01:25 11,1 C 11,0 C 87 % 1013,8 hPa 0,0 mm 0,0 km/h (0 Bft) N-NO 22 9,0 C 0,0 km/h (0 Bft)
03.08.2015 01:30 11,0 C 10,9 C 87 % 1013,8 hPa 0,0 mm 0,0 km/h (0 Bft) NO 45 8,9 C 0,0 km/h (0 Bft)
03.08.2015 01:35 10,9 C 10,8 C 87 % 1013,8 hPa 0,0 mm 0,0 km/h (0 Bft) O-SO 112 8,8 C 0,0 km/h (0 Bft)
03.08.2015 01:40 11,1 C 10,9 C 87 % 1013,8 hPa 0,0 mm 0,0 km/h (0 Bft) NO 45 9,0 C 0,0 km/h (0 Bft)
03.08.2015 01:45 10,9 C 10,8 C 87 % 1013,8 hPa 0,0 mm 0,0 km/h (0 Bft) N-NO 22 8,8 C 0,0 km/h (0 Bft)
03.08.2015 01:50 10,7 C 10,6 C 87 % 1013,6 hPa 0,0 mm 0,0 km/h (0 Bft) W-NW 292 8,6 C 0,0 km/h (0 Bft)
03.08.2015 01:55 10,7 C 10,6 C 87 % 1013,6 hPa 0,0 mm 0,0 km/h (0 Bft) W-NW 292 8,6 C 0,0 km/h (0 Bft)
03.08.2015 02:00 10,7 C 10,6 C 87 % 1013,6 hPa 0,0 mm 0,0 km/h (0 Bft) W-NW 292 8,6 C 0,0 km/h (0 Bft)
03.08.2015 02:05 10,8 C 10,6 C 88 % 1013,6 hPa 0,0 mm 0,0 km/h (0 Bft) S-SW 202 8,9 C 0,0 km/h (0 Bft)
03.08.2015 02:10 10,6 C 10,5 C 88 % 1013,4 hPa 0,0 mm 0,3 km/h (0 Bft) W-SW 247 8,7 C 0,0 km/h (0 Bft)
03.08.2015 02:15 10,7 C 10,6 C 88 % 1013,4 hPa 0,0 mm 0,0 km/h (0 Bft) NO 45 8,8 C 0,0 km/h (0 Bft)
03.08.2015 02:20 10,7 C 10,6 C 88 % 1013,4 hPa 0,0 mm 0,3 km/h (0 Bft) S 180 8,8 C 0,0 km/h (0 Bft)
03.08.2015 02:25 10,8 C 10,7 C 88 % 1013,4 hPa 0,0 mm 0,3 km/h (0 Bft) W-SW 247 8,9 C 0,0 km/h (0 Bft)
03.08.2015 02:30 11,0 C 10,8 C 88 % 1013,2 hPa 0,0 mm 0,3 km/h (0 Bft) W 270 9,1 C 4,9 km/h (1 Bft)
03.08.2015 02:35 10,7 C 10,6 C 88 % 1013,2 hPa 0,0 mm 0,3 km/h (0 Bft) W-NW 292 8,8 C 0,0 km/h (0 Bft)
03.08.2015 02:40 10,7 C 10,6 C 88 % 1013,2 hPa 0,0 mm 0,0 km/h (0 Bft) W 270 8,8 C 0,0 km/h (0 Bft)
03.08.2015 02:45 10,6 C 10,5 C 88 % 1013,2 hPa 0,0 mm 0,0 km/h (0 Bft) W 270 8,7 C 0,0 km/h (0 Bft)
03.08.2015 02:50 10,7 C 10,5 C 88 % 1013,1 hPa 0,0 mm 0,0 km/h (0 Bft) W-SW 247 8,8 C 0,0 km/h (0 Bft)
03.08.2015 02:55 10,6 C 10,5 C 88 % 1013,1 hPa 0,0 mm 0,0 km/h (0 Bft) W-SW 247 8,7 C 0,0 km/h (0 Bft)
03.08.2015 03:00 10,5 C 10,4 C 88 % 1013,1 hPa 0,0 mm 0,0 km/h (0 Bft) W 270 8,6 C 0,0 km/h (0 Bft)
03.08.2015 03:05 10,5 C 10,4 C 88 % 1013,1 hPa 0,0 mm 0,0 km/h (0 Bft) W-SW 247 8,6 C 0,0 km/h (0 Bft)
03.08.2015 03:10 10,5 C 10,4 C 88 % 1012,9 hPa 0,0 mm 0,0 km/h (0 Bft) W-SW 247 8,6 C 0,0 km/h (0 Bft)
03.08.2015 03:15 10,3 C 10,2 C 88 % 1012,9 hPa 0,0 mm 0,0 km/h (0 Bft) W 270 8,4 C 0,0 km/h (0 Bft)
03.08.2015 03:20 10,1 C 10,1 C 88 % 1012,9 hPa 0,0 mm 0,0 km/h (0 Bft) W 270 8,2 C 0,0 km/h (0 Bft)
03.08.2015 03:25 10,3 C 10,2 C 88 % 1012,9 hPa 0,0 mm 0,0 km/h (0 Bft) W-SW 247 8,4 C 0,0 km/h (0 Bft)
03.08.2015 03:28 10,2 C 10,1 C 88 % 1012,8 hPa 0,0 mm 0,0 km/h (0 Bft) W 270 8,3 C 0,0 km/h (0 Bft)
03.08.2015 03:30 10,2 C 10,1 C 88 % 1012,8 hPa 0,0 mm 0,0 km/h (0 Bft) W 270 8,3 C 0,0 km/h (0 Bft)
03.08.2015 03:35 10,1 C 9,9 C 88 % 1012,8 hPa 0,0 mm 0,0 km/h (0 Bft) W 270 8,2 C 0,0 km/h (0 Bft)
03.08.2015 03:40 10,1 C 9,9 C 88 % 1012,8 hPa 0,0 mm 0,0 km/h (0 Bft) SW 225 8,2 C 0,0 km/h (0 Bft)
03.08.2015 03:45 10,2 C 10,0 C 89 % 1012,8 hPa 0,0 mm 0,0 km/h (0 Bft) SW 225 8,5 C 0,0 km/h (0 Bft)
03.08.2015 03:50 10,2 C 10,1 C 89 % 1012,8 hPa 0,0 mm 0,0 km/h (0 Bft) SW 225 8,5 C 0,0 km/h (0 Bft)
03.08.2015 03:55 10,2 C 10,1 C 89 % 1012,8 hPa 0,0 mm 0,0 km/h (0 Bft) NW 315 8,5 C 0,0 km/h (0 Bft)
03.08.2015 04:00 10,3 C 10,1 C 89 % 1012,8 hPa 0,0 mm 0,0 km/h (0 Bft) SW 225 8,6 C 0,0 km/h (0 Bft)
03.08.2015 04:05 10,1 C 10,0 C 89 % 1012,8 hPa 0,0 mm 0,0 km/h (0 Bft) SW 225 8,4 C 0,0 km/h (0 Bft)
03.08.2015 04:10 9,9 C 9,9 C 89 % 1012,8 hPa 0,0 mm 0,0 km/h (0 Bft) SW 225 8,2 C 0,0 km/h (0 Bft)
03.08.2015 04:15 9,8 C 9,7 C 89 % 1012,8 hPa 0,0 mm 0,0 km/h (0 Bft) SW 225 8,1 C 0,0 km/h (0 Bft)
03.08.2015 04:20 10,1 C 9,9 C 89 % 1012,8 hPa 0,0 mm 0,0 km/h (0 Bft) W-NW 292 8,4 C 0,0 km/h (0 Bft)
03.08.2015 04:25 9,9 C 9,8 C 89 % 1012,8 hPa 0,0 mm 0,0 km/h (0 Bft) W 270 8,2 C 0,0 km/h (0 Bft)
03.08.2015 04:30 9,7 C 9,6 C 89 % 1012,7 hPa 0,0 mm 0,0 km/h (0 Bft) W-SW 247 8,0 C 0,0 km/h (0 Bft)
03.08.2015 04:35 9,7 C 9,6 C 89 % 1012,7 hPa 0,0 mm 0,0 km/h (0 Bft) W-NW 292 8,0 C 0,0 km/h (0 Bft)
03.08.2015 04:40 9,6 C 9,5 C 89 % 1012,7 hPa 0,0 mm 0,0 km/h (0 Bft) W-NW 292 7,9 C 0,0 km/h (0 Bft)
03.08.2015 04:45 9,4 C 9,3 C 89 % 1012,7 hPa 0,0 mm 0,0 km/h (0 Bft) W-SW 247 7,7 C 0,0 km/h (0 Bft)
03.08.2015 04:50 9,7 C 9,5 C 89 % 1012,4 hPa 0,0 mm 0,0 km/h (0 Bft) W-SW 247 8,0 C 0,0 km/h (0 Bft)
03.08.2015 04:55 9,7 C 9,5 C 89 % 1012,4 hPa 0,0 mm 0,0 km/h (0 Bft) W-SW 247 8,0 C 0,0 km/h (0 Bft)
03.08.2015 05:00 9,7 C 9,5 C 89 % 1012,4 hPa 0,0 mm 0,0 km/h (0 Bft) SW 225 8,0 C 0,0 km/h (0 Bft)
03.08.2015 05:05 9,7 C 9,5 C 89 % 1012,4 hPa 0,0 mm 0,0 km/h (0 Bft) W-NW 292 8,0 C 0,0 km/h (0 Bft)
03.08.2015 05:10 9,6 C 9,5 C 89 % 1012,6 hPa 0,0 mm 0,0 km/h (0 Bft) SW 225 7,9 C 0,0 km/h (0 Bft)
03.08.2015 05:15 9,5 C 9,4 C 89 % 1012,6 hPa 0,0 mm 0,0 km/h (0 Bft) SW 225 7,8 C 0,0 km/h (0 Bft)
03.08.2015 05:20 9,2 C 9,1 C 89 % 1012,6 hPa 0,0 mm 0,0 km/h (0 Bft) SW 225 7,5 C 0,0 km/h (0 Bft)
03.08.2015 05:25 9,2 C 9,1 C 89 % 1012,6 hPa 0,0 mm 0,0 km/h (0 Bft) SW 225 7,5 C 0,0 km/h (0 Bft)
03.08.2015 05:30 9,1 C 9,0 C 89 % 1012,6 hPa 0,0 mm 0,0 km/h (0 Bft) SW 225 7,4 C 0,0 km/h (0 Bft)
03.08.2015 05:35 9,0 C 8,9 C 89 % 1012,6 hPa 0,0 mm 0,0 km/h (0 Bft) SW 225 7,3 C 0,0 km/h (0 Bft)
03.08.2015 05:40 9,1 C 9,0 C 89 % 1012,6 hPa 0,0 mm 0,0 km/h (0 Bft) SW 225 7,4 C 0,0 km/h (0 Bft)
03.08.2015 05:45 9,1 C 9,0 C 89 % 1012,6 hPa 0,0 mm 0,0 km/h (0 Bft) S 180 7,4 C 0,0 km/h (0 Bft)
03.08.2015 05:50 8,9 C 8,8 C 90 % 1012,8 hPa 0,0 mm 0,0 km/h (0 Bft) W-NW 292 7,4 C 0,0 km/h (0 Bft)
03.08.2015 05:55 9,0 C 8,9 C 89 % 1012,8 hPa 0,0 mm 0,0 km/h (0 Bft) W-NW 292 7,3 C 0,0 km/h (0 Bft)
03.08.2015 06:00 8,9 C 8,8 C 90 % 1012,8 hPa 0,0 mm 0,0 km/h (0 Bft) W-NW 292 7,4 C 0,0 km/h (0 Bft)
03.08.2015 06:05 8,8 C 8,7 C 90 % 1012,8 hPa 0,0 mm 0,0 km/h (0 Bft) W-NW 292 7,3 C 0,0 km/h (0 Bft)
03.08.2015 06:10 8,9 C 8,7 C 90 % 1012,9 hPa 0,0 mm 0,0 km/h (0 Bft) N-NW 337 7,4 C 0,0 km/h (0 Bft)
03.08.2015 06:15 8,8 C 8,7 C 90 % 1012,9 hPa 0,0 mm 0,0 km/h (0 Bft) NW 315 7,3 C 0,0 km/h (0 Bft)
03.08.2015 06:20 8,8 C 8,7 C 90 % 1012,9 hPa 0,0 mm 0,0 km/h (0 Bft) N-NO 22 7,3 C 0,0 km/h (0 Bft)
03.08.2015 06:25 9,1 C 9,5 C 90 % 1012,9 hPa 0,0 mm 0,0 km/h (0 Bft) N-NO 22 7,5 C 0,0 km/h (0 Bft)
03.08.2015 06:30 9,0 C 10,0 C 90 % 1013,1 hPa 0,0 mm 0,0 km/h (0 Bft) N-NO 22 7,4 C 0,0 km/h (0 Bft)
03.08.2015 06:35 9,2 C 9,8 C 90 % 1013,1 hPa 0,0 mm 0,0 km/h (0 Bft) N-NO 22 7,6 C 0,0 km/h (0 Bft)
03.08.2015 06:40 9,1 C 9,7 C 90 % 1013,1 hPa 0,0 mm 0,0 km/h (0 Bft) N-NO 22 7,5 C 0,0 km/h (0 Bft)
03.08.2015 06:45 9,4 C 10,9 C 90 % 1013,1 hPa 0,0 mm 0,0 km/h (0 Bft) N-NO 22 7,8 C 0,0 km/h (0 Bft)
03.08.2015 06:50 9,5 C 12,2 C 87 % 1013,1 hPa 0,0 mm 0,0 km/h (0 Bft) NO 45 7,4 C 0,0 km/h (0 Bft)
03.08.2015 06:55 9,8 C 13,2 C 87 % 1013,1 hPa 0,0 mm 0,0 km/h (0 Bft) NO 45 7,7 C 0,0 km/h (0 Bft)
03.08.2015 07:00 10,0 C 14,8 C 87 % 1013,1 hPa 0,0 mm 0,0 km/h (0 Bft) O 90 7,9 C 0,0 km/h (0 Bft)
03.08.2015 07:05 10,2 C 15,6 C 87 % 1013,1 hPa 0,0 mm 0,0 km/h (0 Bft) NO 45 8,1 C 0,0 km/h (0 Bft)
03.08.2015 07:10 10,6 C 16,8 C 87 % 1013,3 hPa 0,0 mm 0,0 km/h (0 Bft) O-NO 67 8,5 C 0,0 km/h (0 Bft)
03.08.2015 07:15 11,3 C 17,5 C 90 % 1013,3 hPa 0,0 mm 0,0 km/h (0 Bft) NO 45 9,7 C 0,0 km/h (0 Bft)
03.08.2015 07:20 11,8 C 18,7 C 87 % 1013,3 hPa 0,0 mm 0,0 km/h (0 Bft) O-SO 112 9,7 C 0,0 km/h (0 Bft)
03.08.2015 07:25 12,1 C 19,3 C 86 % 1013,3 hPa 0,0 mm 0,0 km/h (0 Bft) O 90 9,8 C 0,0 km/h (0 Bft)
03.08.2015 07:30 12,2 C 20,0 C 86 % 1013,6 hPa 0,0 mm 0,0 km/h (0 Bft) O-SO 112 9,9 C 0,0 km/h (0 Bft)
03.08.2015 07:35 12,3 C 20,8 C 86 % 1013,6 hPa 0,0 mm 0,0 km/h (0 Bft) SO 135 10,0 C 0,0 km/h (0 Bft)
03.08.2015 07:40 12,5 C 22,3 C 86 % 1013,6 hPa 0,0 mm 0,0 km/h (0 Bft) O-SO 112 10,2 C 0,0 km/h (0 Bft)
03.08.2015 07:45 13,2 C 23,2 C 85 % 1013,6 hPa 0,0 mm 0,0 km/h (0 Bft) N-NO 22 10,7 C 0,0 km/h (0 Bft)
03.08.2015 07:50 14,4 C 24,3 C 85 % 1013,2 hPa 0,0 mm 0,0 km/h (0 Bft) SW 225 11,9 C 0,0 km/h (0 Bft)
03.08.2015 07:55 15,4 C 25,0 C 86 % 1013,2 hPa 0,0 mm 0,0 km/h (0 Bft) N-NO 22 13,1 C 0,0 km/h (0 Bft)
03.08.2015 08:00 16,0 C 25,9 C 81 % 1013,2 hPa 0,0 mm 0,0 km/h (0 Bft) O 90 12,7 C 0,0 km/h (0 Bft)
03.08.2015 08:05 16,2 C 26,8 C 80 % 1013,2 hPa 0,0 mm 0,0 km/h (0 Bft) O 90 12,7 C 0,0 km/h (0 Bft)
03.08.2015 08:10 16,5 C 27,4 C 80 % 1013,0 hPa 0,0 mm 0,0 km/h (0 Bft) O-NO 67 13,0 C 0,0 km/h (0 Bft)
03.08.2015 08:15 17,0 C 27,7 C 79 % 1013,0 hPa 0,0 mm 0,0 km/h (0 Bft) O-NO 67 13,3 C 0,0 km/h (0 Bft)
03.08.2015 08:20 17,8 C 28,5 C 78 % 1013,0 hPa 0,0 mm 0,0 km/h (0 Bft) O-NO 67 13,9 C 0,0 km/h (0 Bft)
03.08.2015 08:25 18,0 C 28,8 C 76 % 1013,0 hPa 0,0 mm 0,0 km/h (0 Bft) O-SO 112 13,7 C 0,0 km/h (0 Bft)
03.08.2015 08:30 18,0 C 28,9 C 75 % 1013,1 hPa 0,0 mm 0,0 km/h (0 Bft) O-NO 67 13,5 C 0,0 km/h (0 Bft)
03.08.2015 08:35 18,3 C 28,8 C 74 % 1013,1 hPa 0,0 mm 0,0 km/h (0 Bft) O-NO 67 13,6 C 0,0 km/h (0 Bft)
03.08.2015 08:40 18,7 C 29,0 C 73 % 1013,1 hPa 0,0 mm 0,0 km/h (0 Bft) O-NO 67 13,8 C 0,0 km/h (0 Bft)
03.08.2015 08:45 18,8 C 29,2 C 72 % 1013,1 hPa 0,0 mm 0,0 km/h (0 Bft) O-NO 67 13,6 C 0,0 km/h (0 Bft)
03.08.2015 08:50 19,1 C 29,7 C 72 % 1013,1 hPa 0,0 mm 0,0 km/h (0 Bft) O-SO 112 13,9 C 0,0 km/h (0 Bft)
03.08.2015 08:55 19,8 C 29,8 C 71 % 1013,1 hPa 0,0 mm 0,0 km/h (0 Bft) O-NO 67 14,4 C 0,0 km/h (0 Bft)
03.08.2015 09:00 20,2 C 30,4 C 70 % 1013,1 hPa 0,0 mm 0,0 km/h (0 Bft) O-NO 67 14,5 C 0,0 km/h (0 Bft)
03.08.2015 09:05 20,2 C 31,0 C 69 % 1013,1 hPa 0,0 mm 0,0 km/h (0 Bft) O-NO 67 14,3 C 0,0 km/h (0 Bft)
03.08.2015 09:10 20,5 C 31,2 C 69 % 1013,2 hPa 0,0 mm 0,0 km/h (0 Bft) O-NO 67 14,6 C 0,0 km/h (0 Bft)
03.08.2015 09:15 21,0 C 31,1 C 68 % 1013,2 hPa 0,0 mm 0,0 km/h (0 Bft) O-NO 67 14,9 C 0,0 km/h (0 Bft)
03.08.2015 09:20 21,0 C 30,6 C 67 % 1013,2 hPa 0,0 mm 0,0 km/h (0 Bft) O-NO 67 14,6 C 0,0 km/h (0 Bft)
03.08.2015 09:25 21,5 C 30,5 C 67 % 1013,2 hPa 0,0 mm 0,0 km/h (0 Bft) O-NO 67 15,1 C 0,0 km/h (0 Bft)
03.08.2015 09:29 21,6 C 30,6 C 66 % 1013,4 hPa 0,0 mm 0,0 km/h (0 Bft) O-NO 67 15,0 C 0,0 km/h (0 Bft)
03.08.2015 09:35 21,9 C 30,3 C 65 % 1013,4 hPa 0,0 mm 0,0 km/h (0 Bft) O-NO 67 15,0 C 0,0 km/h (0 Bft)
03.08.2015 09:40 21,8 C 30,0 C 63 % 1013,4 hPa 0,0 mm 0,0 km/h (0 Bft) O-SO 112 14,4 C 0,0 km/h (0 Bft)
03.08.2015 09:45 22,0 C 29,8 C 61 % 1013,4 hPa 0,0 mm 0,0 km/h (0 Bft) SO 135 14,1 C 0,0 km/h (0 Bft)
03.08.2015 09:50 22,3 C 30,3 C 61 % 1013,7 hPa 0,0 mm 0,0 km/h (0 Bft) O-NO 67 14,4 C 0,0 km/h (0 Bft)
03.08.2015 09:55 23,0 C 30,7 C 59 % 1013,7 hPa 0,0 mm 0,0 km/h (0 Bft) O-NO 67 14,5 C 0,0 km/h (0 Bft)
03.08.2015 10:00 23,2 C 30,6 C 58 % 1013,7 hPa 0,0 mm 0,3 km/h (0 Bft) N 360 14,5 C 6,5 km/h (2 Bft)
03.08.2015 10:05 23,0 C 30,2 C 59 % 1013,7 hPa 0,0 mm 0,3 km/h (0 Bft) N-NO 22 14,5 C 0,0 km/h (0 Bft)
03.08.2015 10:10 23,0 C 30,4 C 58 % 1014,1 hPa 0,0 mm 0,3 km/h (0 Bft) W-NW 292 14,3 C 0,0 km/h (0 Bft)
03.08.2015 10:15 23,6 C 31,1 C 58 % 1014,1 hPa 0,0 mm 0,0 km/h (0 Bft) O 90 14,8 C 0,0 km/h (0 Bft)
03.08.2015 10:20 23,4 C 31,3 C 56 % 1014,1 hPa 0,0 mm 0,0 km/h (0 Bft) O-NO 67 14,1 C 0,0 km/h (0 Bft)
03.08.2015 10:25 23,1 C 30,8 C 56 % 1014,1 hPa 0,0 mm 0,0 km/h (0 Bft) N-NO 22 13,8 C 0,0 km/h (0 Bft)
03.08.2015 10:30 23,1 C 30,3 C 57 % 1014,6 hPa 0,0 mm 0,0 km/h (0 Bft) N-NO 22 14,1 C 0,0 km/h (0 Bft)
03.08.2015 10:35 23,4 C 30,4 C 56 % 1014,6 hPa 0,0 mm 0,3 km/h (0 Bft) O-NO 67 14,1 C 0,0 km/h (0 Bft)
03.08.2015 10:40 23,7 C 30,4 C 55 % 1014,6 hPa 0,0 mm 0,3 km/h (0 Bft) NO 45 14,1 C 0,0 km/h (0 Bft)
03.08.2015 10:45 23,8 C 30,9 C 54 % 1014,6 hPa 0,0 mm 0,0 km/h (0 Bft) O-NO 67 13,9 C 0,0 km/h (0 Bft)
03.08.2015 10:50 23,8 C 30,7 C 54 % 1014,8 hPa 0,0 mm 0,0 km/h (0 Bft) O-SO 112 13,9 C 0,0 km/h (0 Bft)
03.08.2015 10:55 23,9 C 30,8 C 53 % 1014,8 hPa 0,0 mm 0,3 km/h (0 Bft) NO 45 13,7 C 0,0 km/h (0 Bft)
03.08.2015 11:00 24,4 C 31,2 C 55 % 1014,8 hPa 0,0 mm 0,3 km/h (0 Bft) SO 135 14,8 C 0,0 km/h (0 Bft)
03.08.2015 11:05 24,6 C 31,1 C 54 % 1014,8 hPa 0,0 mm 0,3 km/h (0 Bft) W-NW 292 14,7 C 0,0 km/h (0 Bft)
03.08.2015 11:10 24,7 C 30,7 C 54 % 1015,1 hPa 0,0 mm 0,5 km/h (0 Bft) NW 315 14,8 C 7,5 km/h (2 Bft)
03.08.2015 11:15 24,6 C 30,7 C 54 % 1015,1 hPa 0,0 mm 1,0 km/h (0 Bft) NW 315 14,7 C 6,7 km/h (2 Bft)
03.08.2015 11:20 24,6 C 30,2 C 54 % 1015,1 hPa 0,0 mm 3,6 km/h (1 Bft) N 360 14,7 C 10,4 km/h (2 Bft)
03.08.2015 11:25 24,5 C 30,3 C 54 % 1015,1 hPa 0,0 mm 4,1 km/h (1 Bft) N-NW 337 14,6 C 7,8 km/h (2 Bft)
03.08.2015 11:30 24,5 C 30,3 C 54 % 1015,2 hPa 0,0 mm 4,9 km/h (1 Bft) NW 315 14,6 C 12,2 km/h (2 Bft)
03.08.2015 11:35 24,4 C 30,3 C 54 % 1015,2 hPa 0,0 mm 6,0 km/h (2 Bft) S-SO 157 14,5 C 3,9 km/h (1 Bft)
03.08.2015 11:40 24,8 C 30,2 C 55 % 1015,2 hPa 0,0 mm 4,1 km/h (1 Bft) NW 315 15,1 C 0,0 km/h (0 Bft)
03.08.2015 11:45 25,1 C 30,6 C 54 % 1015,2 hPa 0,0 mm 3,6 km/h (1 Bft) N-NO 22 15,1 C 9,8 km/h (2 Bft)
03.08.2015 11:50 25,1 C 30,4 C 54 % 1015,2 hPa 0,0 mm 5,2 km/h (1 Bft) W 270 15,1 C 8,0 km/h (2 Bft)
03.08.2015 11:55 25,2 C 30,7 C 53 % 1015,2 hPa 0,0 mm 5,7 km/h (1 Bft) S 180 14,9 C 5,7 km/h (1 Bft)
03.08.2015 12:00 25,6 C 31,0 C 55 % 1015,2 hPa 0,0 mm 3,1 km/h (1 Bft) W 270 15,9 C 3,4 km/h (1 Bft)
03.08.2015 12:05 25,7 C 31,3 C 55 % 1015,2 hPa 0,0 mm 3,9 km/h (1 Bft) W-NW 292 16,0 C 6,7 km/h (2 Bft)
03.08.2015 12:10 25,7 C 30,5 C 55 % 1015,1 hPa 0,0 mm 7,5 km/h (2 Bft) W-NW 292 16,0 C 14,0 km/h (3 Bft)
03.08.2015 12:15 25,5 C 30,0 C 54 % 1015,1 hPa 0,0 mm 8,8 km/h (2 Bft) W 270 15,5 C 20,2 km/h (4 Bft)
03.08.2015 12:20 25,6 C 29,5 C 54 % 1015,1 hPa 0,0 mm 10,4 km/h (2 Bft) W-NW 292 15,6 C 14,0 km/h (3 Bft)
03.08.2015 12:25 25,6 C 29,2 C 54 % 1015,1 hPa 0,0 mm 10,4 km/h (2 Bft) NW 315 15,6 C 7,3 km/h (2 Bft)
03.08.2015 12:30 25,7 C 29,5 C 54 % 1015,1 hPa 0,0 mm 8,0 km/h (2 Bft) NW 315 15,7 C 8,8 km/h (2 Bft)
03.08.2015 12:35 25,8 C 29,6 C 54 % 1015,1 hPa 0,0 mm 7,8 km/h (2 Bft) W 270 15,8 C 10,9 km/h (2 Bft)
03.08.2015 12:40 25,8 C 29,6 C 54 % 1015,1 hPa 0,0 mm 8,8 km/h (2 Bft) NW 315 15,8 C 12,4 km/h (3 Bft)
03.08.2015 12:45 25,9 C 29,7 C 55 % 1015,1 hPa 0,0 mm 8,3 km/h (2 Bft) W 270 16,2 C 4,7 km/h (1 Bft)
03.08.2015 12:50 26,2 C 30,1 C 52 % 1015,1 hPa 0,0 mm 7,5 km/h (2 Bft) N-NO 22 15,6 C 3,6 km/h (1 Bft)
03.08.2015 12:55 26,1 C 30,4 C 52 % 1015,1 hPa 0,0 mm 5,4 km/h (1 Bft) W-NW 292 15,5 C 0,0 km/h (0 Bft)
03.08.2015 13:00 26,6 C 31,0 C 50 % 1015,1 hPa 0,0 mm 4,9 km/h (1 Bft) W-NW 292 15,3 C 8,0 km/h (2 Bft)
03.08.2015 13:05 26,8 C 30,9 C 50 % 1015,1 hPa 0,0 mm 5,7 km/h (1 Bft) N-NW 337 15,5 C 5,4 km/h (1 Bft)
03.08.2015 13:10 26,5 C 31,2 C 50 % 1015,1 hPa 0,0 mm 4,9 km/h (1 Bft) N-NW 337 15,2 C 7,0 km/h (2 Bft)
03.08.2015 13:15 26,8 C 31,0 C 50 % 1015,1 hPa 0,0 mm 4,9 km/h (1 Bft) NW 315 15,5 C 7,5 km/h (2 Bft)
03.08.2015 13:20 27,0 C 30,4 C 50 % 1015,1 hPa 0,0 mm 4,1 km/h (1 Bft) N-NO 22 15,7 C 8,3 km/h (2 Bft)
03.08.2015 13:25 26,8 C 29,9 C 50 % 1015,1 hPa 0,0 mm 3,4 km/h (1 Bft) NW 315 15,5 C 4,7 km/h (1 Bft)
03.08.2015 13:30 26,9 C 29,9 C 50 % 1015,3 hPa 0,0 mm 6,0 km/h (2 Bft) N-NW 337 15,6 C 10,6 km/h (2 Bft)
03.08.2015 13:35 27,0 C 30,2 C 50 % 1015,3 hPa 0,0 mm 6,2 km/h (2 Bft) NW 315 15,7 C 0,0 km/h (0 Bft)
03.08.2015 13:40 27,2 C 31,2 C 49 % 1015,3 hPa 0,0 mm 5,4 km/h (1 Bft) NW 315 15,5 C 3,4 km/h (1 Bft)
03.08.2015 13:45 27,4 C 31,9 C 49 % 1015,3 hPa 0,0 mm 4,4 km/h (1 Bft) NO 45 15,7 C 5,2 km/h (1 Bft)
03.08.2015 13:50 27,2 C 31,5 C 49 % 1014,9 hPa 0,0 mm 4,4 km/h (1 Bft) O 90 15,5 C 4,9 km/h (1 Bft)
03.08.2015 13:55 26,6 C 30,8 C 50 % 1014,9 hPa 0,0 mm 4,9 km/h (1 Bft) O-NO 67 15,3 C 4,4 km/h (1 Bft)
03.08.2015 14:00 26,5 C 30,0 C 50 % 1014,9 hPa 0,0 mm 5,4 km/h (1 Bft) W-NW 292 15,2 C 12,7 km/h (3 Bft)
03.08.2015 14:05 27,1 C 30,5 C 49 % 1014,9 hPa 0,0 mm 6,7 km/h (2 Bft) W 270 15,4 C 10,6 km/h (2 Bft)
03.08.2015 14:10 27,4 C 30,9 C 48 % 1014,6 hPa 0,0 mm 9,3 km/h (2 Bft) NW 315 15,4 C 12,7 km/h (3 Bft)
03.08.2015 14:15 26,7 C 29,8 C 48 % 1014,6 hPa 0,0 mm 9,6 km/h (2 Bft) NW 315 14,8 C 15,8 km/h (3 Bft)
03.08.2015 14:20 26,8 C 29,5 C 49 % 1014,6 hPa 0,0 mm 7,8 km/h (2 Bft) W-SW 247 15,2 C 4,1 km/h (1 Bft)
03.08.2015 14:25 27,3 C 30,8 C 48 % 1014,6 hPa 0,0 mm 5,7 km/h (1 Bft) SW 225 15,3 C 0,0 km/h (0 Bft)
03.08.2015 14:30 27,7 C 32,4 C 47 % 1014,4 hPa 0,0 mm 3,1 km/h (1 Bft) N-NO 22 15,3 C 7,5 km/h (2 Bft)
03.08.2015 14:35 27,9 C 32,7 C 48 % 1014,4 hPa 0,0 mm 4,7 km/h (1 Bft) NW 315 15,9 C 12,4 km/h (3 Bft)
03.08.2015 14:40 28,0 C 32,6 C 45 % 1014,4 hPa 0,0 mm 7,5 km/h (2 Bft) S-SW 202 14,9 C 0,0 km/h (0 Bft)
03.08.2015 14:45 28,0 C 33,0 C 46 % 1014,4 hPa 0,0 mm 6,5 km/h (2 Bft) NW 315 15,3 C 24,3 km/h (4 Bft)
03.08.2015 14:50 27,5 C 31,4 C 46 % 1014,2 hPa 0,0 mm 8,8 km/h (2 Bft) NW 315 14,8 C 25,4 km/h (4 Bft)
03.08.2015 14:55 27,8 C 31,5 C 47 % 1014,2 hPa 0,0 mm 10,6 km/h (2 Bft) NW 315 15,4 C 10,4 km/h (2 Bft)
03.08.2015 15:00 27,9 C 31,7 C 46 % 1014,2 hPa 0,0 mm 7,8 km/h (2 Bft) NW 315 15,2 C 9,8 km/h (2 Bft)
03.08.2015 15:05 28,1 C 31,9 C 46 % 1014,2 hPa 0,0 mm 7,5 km/h (2 Bft) N-NO 22 15,4 C 3,9 km/h (1 Bft)
03.08.2015 15:10 28,0 C 31,9 C 45 % 1014,1 hPa 0,0 mm 8,0 km/h (2 Bft) N-NO 22 14,9 C 11,9 km/h (2 Bft)
03.08.2015 15:15 27,9 C 31,9 C 45 % 1014,1 hPa 0,0 mm 8,5 km/h (2 Bft) NW 315 14,8 C 10,4 km/h (2 Bft)
03.08.2015 15:20 28,1 C 31,8 C 44 % 1014,1 hPa 0,0 mm 9,6 km/h (2 Bft) W 270 14,7 C 11,4 km/h (2 Bft)
03.08.2015 15:25 28,0 C 31,5 C 44 % 1014,1 hPa 0,0 mm 10,1 km/h (2 Bft) W-SW 247 14,6 C 10,4 km/h (2 Bft)
03.08.2015 15:30 28,2 C 32,6 C 43 % 1013,8 hPa 0,0 mm 4,9 km/h (1 Bft) W-SW 247 14,4 C 12,9 km/h (3 Bft)
03.08.2015 15:35 28,2 C 32,6 C 43 % 1013,8 hPa 0,0 mm 4,9 km/h (1 Bft) W-SW 247 14,4 C 12,9 km/h (3 Bft)
03.08.2015 15:40 28,2 C 32,4 C 43 % 1013,8 hPa 0,0 mm 6,7 km/h (2 Bft) W-SW 247 14,4 C 7,8 km/h (2 Bft)
03.08.2015 15:45 28,3 C 32,5 C 42 % 1013,8 hPa 0,0 mm 7,0 km/h (2 Bft) NW 315 14,1 C 9,3 km/h (2 Bft)
03.08.2015 15:50 28,4 C 32,6 C 43 % 1013,8 hPa 0,0 mm 7,3 km/h (2 Bft) W 270 14,6 C 9,1 km/h (2 Bft)
03.08.2015 15:55 28,2 C 32,5 C 42 % 1013,8 hPa 0,0 mm 6,5 km/h (2 Bft) W 270 14,0 C 8,5 km/h (2 Bft)
03.08.2015 16:00 28,0 C 32,1 C 43 % 1013,8 hPa 0,0 mm 8,0 km/h (2 Bft) W 270 14,2 C 6,7 km/h (2 Bft)
03.08.2015 16:05 28,1 C 31,8 C 42 % 1013,8 hPa 0,0 mm 9,3 km/h (2 Bft) NO 45 14,0 C 14,2 km/h (3 Bft)
03.08.2015 16:10 28,1 C 32,1 C 42 % 1013,4 hPa 0,0 mm 6,2 km/h (2 Bft) NW 315 14,0 C 0,0 km/h (0 Bft)
03.08.2015 16:15 28,2 C 33,0 C 43 % 1013,4 hPa 0,0 mm 3,9 km/h (1 Bft) NW 315 14,4 C 15,5 km/h (3 Bft)
03.08.2015 16:20 27,5 C 33,0 C 44 % 1013,4 hPa 0,0 mm 4,7 km/h (1 Bft) W-SW 247 14,1 C 2,6 km/h (1 Bft)
03.08.2015 16:25 27,1 C 32,9 C 43 % 1013,4 hPa 0,0 mm 7,3 km/h (2 Bft) W 270 13,4 C 15,0 km/h (3 Bft)
03.08.2015 16:30 26,8 C 32,2 C 43 % 1012,9 hPa 0,0 mm 8,0 km/h (2 Bft) SW 225 13,2 C 0,0 km/h (0 Bft)
03.08.2015 16:35 26,6 C 32,3 C 44 % 1012,9 hPa 0,0 mm 7,8 km/h (2 Bft) W-SW 247 13,3 C 0,0 km/h (0 Bft)
03.08.2015 16:40 26,6 C 32,8 C 45 % 1012,9 hPa 0,0 mm 4,1 km/h (1 Bft) W-NW 292 13,7 C 6,7 km/h (2 Bft)
03.08.2015 16:45 26,6 C 32,6 C 44 % 1012,9 hPa 0,0 mm 4,9 km/h (1 Bft) SO 135 13,3 C 0,0 km/h (0 Bft)
03.08.2015 16:50 26,6 C 32,5 C 44 % 1013,3 hPa 0,0 mm 6,2 km/h (2 Bft) W 270 13,3 C 5,7 km/h (1 Bft)
03.08.2015 16:55 26,6 C 31,4 C 44 % 1013,3 hPa 0,0 mm 7,5 km/h (2 Bft) W 270 13,3 C 13,2 km/h (3 Bft)
03.08.2015 17:00 26,5 C 29,2 C 45 % 1013,3 hPa 0,0 mm 8,5 km/h (2 Bft) NW 315 13,6 C 13,5 km/h (3 Bft)
03.08.2015 17:05 26,5 C 28,6 C 45 % 1013,3 hPa 0,0 mm 8,8 km/h (2 Bft) N-NW 337 13,6 C 9,3 km/h (2 Bft)
03.08.2015 17:10 26,5 C 27,8 C 45 % 1013,2 hPa 0,0 mm 7,5 km/h (2 Bft) NW 315 13,6 C 8,5 km/h (2 Bft)
03.08.2015 17:15 26,5 C 27,5 C 45 % 1013,2 hPa 0,0 mm 6,2 km/h (2 Bft) NW 315 13,6 C 0,0 km/h (0 Bft)
03.08.2015 17:20 26,4 C 27,4 C 43 % 1013,2 hPa 0,0 mm 5,2 km/h (1 Bft) N-NO 22 12,8 C 4,9 km/h (1 Bft)
03.08.2015 17:25 26,4 C 27,3 C 44 % 1013,2 hPa 0,0 mm 5,2 km/h (1 Bft) O-NO 67 13,1 C 6,0 km/h (2 Bft)
03.08.2015 17:30 26,4 C 27,3 C 44 % 1013,2 hPa 0,0 mm 7,0 km/h (2 Bft) NW 315 13,1 C 7,0 km/h (2 Bft)
03.08.2015 17:35 26,2 C 27,3 C 44 % 1013,2 hPa 0,0 mm 6,7 km/h (2 Bft) W 270 13,0 C 6,0 km/h (2 Bft)
03.08.2015 17:40 26,1 C 27,2 C 44 % 1013,2 hPa 0,0 mm 6,5 km/h (2 Bft) W-SW 247 12,9 C 7,3 km/h (2 Bft)
03.08.2015 17:45 26,1 C 27,0 C 45 % 1013,2 hPa 0,0 mm 6,7 km/h (2 Bft) W-SW 247 13,2 C 7,8 km/h (2 Bft)
03.08.2015 17:50 26,1 C 27,0 C 45 % 1013,1 hPa 0,0 mm 7,0 km/h (2 Bft) NW 315 13,2 C 5,7 km/h (1 Bft)
03.08.2015 17:55 26,1 C 27,0 C 44 % 1013,1 hPa 0,0 mm 6,7 km/h (2 Bft) N-NW 337 12,9 C 9,6 km/h (2 Bft)
03.08.2015 18:00 26,0 C 26,9 C 44 % 1013,1 hPa 0,0 mm 7,3 km/h (2 Bft) N-NO 22 12,8 C 14,0 km/h (3 Bft)
03.08.2015 18:05 26,1 C 26,8 C 44 % 1013,1 hPa 0,0 mm 7,5 km/h (2 Bft) W-NW 292 12,9 C 9,3 km/h (2 Bft)
03.08.2015 18:10 26,0 C 26,8 C 44 % 1012,9 hPa 0,0 mm 7,0 km/h (2 Bft) NW 315 12,8 C 9,1 km/h (2 Bft)
03.08.2015 18:15 25,9 C 26,7 C 44 % 1012,9 hPa 0,0 mm 6,5 km/h (2 Bft) NW 315 12,7 C 2,8 km/h (1 Bft)
03.08.2015 18:20 25,9 C 26,6 C 45 % 1012,9 hPa 0,0 mm 6,0 km/h (2 Bft) S-SW 202 13,0 C 9,1 km/h (2 Bft)
03.08.2015 18:25 26,0 C 26,6 C 43 % 1012,9 hPa 0,0 mm 5,7 km/h (1 Bft) N-NW 337 12,4 C 6,2 km/h (2 Bft)
03.08.2015 18:30 25,8 C 26,6 C 44 % 1012,9 hPa 0,0 mm 6,5 km/h (2 Bft) N-NW 337 12,6 C 3,6 km/h (1 Bft)
03.08.2015 18:35 25,8 C 26,6 C 45 % 1012,9 hPa 0,0 mm 6,0 km/h (2 Bft) SW 225 13,0 C 2,8 km/h (1 Bft)
03.08.2015 18:40 25,7 C 26,8 C 45 % 1012,9 hPa 0,0 mm 5,2 km/h (1 Bft) NW 315 12,9 C 10,9 km/h (2 Bft)
03.08.2015 18:45 25,6 C 26,8 C 45 % 1012,9 hPa 0,0 mm 4,1 km/h (1 Bft) NW 315 12,8 C 4,1 km/h (1 Bft)
03.08.2015 18:50 25,5 C 26,5 C 46 % 1012,8 hPa 0,0 mm 3,9 km/h (1 Bft) W-NW 292 13,0 C 6,2 km/h (2 Bft)
03.08.2015 18:55 25,5 C 26,4 C 46 % 1012,8 hPa 0,0 mm 3,9 km/h (1 Bft) W 270 13,0 C 3,9 km/h (1 Bft)
03.08.2015 19:00 25,5 C 26,3 C 45 % 1012,8 hPa 0,0 mm 6,0 km/h (2 Bft) NW 315 12,7 C 12,4 km/h (3 Bft)
03.08.2015 19:05 25,4 C 26,0 C 45 % 1012,8 hPa 0,0 mm 6,2 km/h (2 Bft) W 270 12,6 C 7,3 km/h (2 Bft)
03.08.2015 19:10 25,2 C 26,9 C 47 % 1012,8 hPa 0,0 mm 5,7 km/h (1 Bft) N-NW 337 13,1 C 3,4 km/h (1 Bft)
03.08.2015 19:15 25,2 C 27,8 C 46 % 1012,8 hPa 0,0 mm 6,2 km/h (2 Bft) N-NW 337 12,7 C 2,6 km/h (1 Bft)
03.08.2015 19:20 25,2 C 28,4 C 46 % 1012,8 hPa 0,0 mm 4,7 km/h (1 Bft) W 270 12,7 C 7,3 km/h (2 Bft)
03.08.2015 19:25 25,1 C 29,0 C 47 % 1012,8 hPa 0,0 mm 2,8 km/h (1 Bft) W 270 13,0 C 3,6 km/h (1 Bft)
03.08.2015 19:30 24,8 C 29,6 C 47 % 1012,8 hPa 0,0 mm 1,0 km/h (0 Bft) W 270 12,7 C 0,0 km/h (0 Bft)
03.08.2015 19:35 24,6 C 29,9 C 47 % 1012,8 hPa 0,0 mm 0,8 km/h (0 Bft) NW 315 12,5 C 3,9 km/h (1 Bft)
03.08.2015 19:40 24,5 C 30,1 C 48 % 1012,8 hPa 0,0 mm 0,5 km/h (0 Bft) W 270 12,8 C 0,0 km/h (0 Bft)
03.08.2015 19:45 24,3 C 30,0 C 48 % 1012,8 hPa 0,0 mm 0,3 km/h (0 Bft) W-SW 247 12,6 C 0,0 km/h (0 Bft)
03.08.2015 19:50 24,2 C 30,0 C 48 % 1012,8 hPa 0,0 mm 0,0 km/h (0 Bft) W-SW 247 12,5 C 0,0 km/h (0 Bft)
03.08.2015 19:55 24,1 C 29,9 C 47 % 1012,8 hPa 0,0 mm 0,0 km/h (0 Bft) S-SO 157 12,1 C 0,0 km/h (0 Bft)
03.08.2015 20:00 24,1 C 29,6 C 48 % 1012,8 hPa 0,0 mm 0,0 km/h (0 Bft) S 180 12,4 C 0,0 km/h (0 Bft)
03.08.2015 20:05 23,9 C 29,4 C 49 % 1012,8 hPa 0,0 mm 0,0 km/h (0 Bft) S-SW 202 12,5 C 0,0 km/h (0 Bft)
03.08.2015 20:10 23,5 C 29,0 C 52 % 1012,6 hPa 0,0 mm 0,0 km/h (0 Bft) S 180 13,1 C 0,0 km/h (0 Bft)
03.08.2015 20:15 23,0 C 28,6 C 54 % 1012,6 hPa 0,0 mm 0,0 km/h (0 Bft) SO 135 13,2 C 0,0 km/h (0 Bft)
03.08.2015 20:20 22,3 C 28,0 C 57 % 1012,6 hPa 0,0 mm 0,0 km/h (0 Bft) S-SO 157 13,4 C 0,0 km/h (0 Bft)
03.08.2015 20:25 22,2 C 27,4 C 57 % 1012,6 hPa 0,0 mm 0,0 km/h (0 Bft) SO 135 13,3 C 0,0 km/h (0 Bft)
03.08.2015 20:30 21,9 C 26,7 C 57 % 1012,8 hPa 0,0 mm 0,0 km/h (0 Bft) S-SW 202 13,0 C 0,0 km/h (0 Bft)
03.08.2015 20:35 20,8 C 26,2 C 59 % 1012,8 hPa 0,0 mm 0,0 km/h (0 Bft) O-SO 112 12,5 C 0,0 km/h (0 Bft)
03.08.2015 20:40 20,4 C 24,9 C 60 % 1012,8 hPa 0,0 mm 0,0 km/h (0 Bft) S-SO 157 12,4 C 0,0 km/h (0 Bft)
03.08.2015 20:45 20,7 C 24,2 C 60 % 1012,8 hPa 0,0 mm 0,0 km/h (0 Bft) S-SO 157 12,7 C 0,0 km/h (0 Bft)
03.08.2015 20:50 21,1 C 23,2 C 58 % 1012,8 hPa 0,0 mm 0,8 km/h (0 Bft) S-SO 157 12,5 C 2,8 km/h (1 Bft)
03.08.2015 20:55 20,7 C 22,6 C 59 % 1012,8 hPa 0,0 mm 1,3 km/h (1 Bft) NO 45 12,4 C 2,8 km/h (1 Bft)
03.08.2015 21:00 19,9 C 21,6 C 60 % 1012,8 hPa 0,0 mm 1,0 km/h (0 Bft) S-SO 157 11,9 C 0,0 km/h (0 Bft)
03.08.2015 21:05 19,5 C 20,9 C 61 % 1012,8 hPa 0,0 mm 0,5 km/h (0 Bft) O-SO 112 11,8 C 0,0 km/h (0 Bft)
03.08.2015 21:10 19,0 C 19,9 C 62 % 1012,7 hPa 0,0 mm 0,3 km/h (0 Bft) S 180 11,6 C 0,0 km/h (0 Bft)
03.08.2015 21:15 18,9 C 19,6 C 65 % 1012,7 hPa 0,0 mm 1,0 km/h (0 Bft) S-SO 157 12,2 C 4,7 km/h (1 Bft)
03.08.2015 21:20 19,2 C 19,6 C 63 % 1012,7 hPa 0,0 mm 2,1 km/h (1 Bft) S-SO 157 12,0 C 4,7 km/h (1 Bft)
03.08.2015 21:25 19,2 C 19,5 C 63 % 1012,7 hPa 0,0 mm 3,1 km/h (1 Bft) SO 135 12,0 C 4,1 km/h (1 Bft)
03.08.2015 21:30 18,1 C 19,1 C 66 % 1012,8 hPa 0,0 mm 1,8 km/h (1 Bft) SO 135 11,6 C 2,8 km/h (1 Bft)
03.08.2015 21:31 18,1 C 19,1 C 66 % 1012,8 hPa 0,0 mm 1,8 km/h (1 Bft) SO 135 11,6 C 2,8 km/h (1 Bft)
03.08.2015 21:35 18,1 C 19,1 C 66 % 1012,8 hPa 0,0 mm 1,8 km/h (1 Bft) SO 135 11,6 C 2,8 km/h (1 Bft)
03.08.2015 21:40 18,0 C 18,8 C 68 % 1012,8 hPa 0,0 mm 1,6 km/h (1 Bft) S-SO 157 12,0 C 4,4 km/h (1 Bft)
03.08.2015 21:45 18,0 C 18,5 C 68 % 1012,8 hPa 0,0 mm 2,1 km/h (1 Bft) S-SO 157 12,0 C 0,0 km/h (0 Bft)
03.08.2015 21:50 17,9 C 18,3 C 68 % 1012,8 hPa 0,0 mm 1,0 km/h (0 Bft) S-SO 157 11,9 C 0,0 km/h (0 Bft)
03.08.2015 21:55 17,8 C 18,1 C 68 % 1012,8 hPa 0,0 mm 0,5 km/h (0 Bft) S 180 11,8 C 2,8 km/h (1 Bft)
03.08.2015 22:00 17,5 C 17,9 C 68 % 1012,8 hPa 0,0 mm 0,5 km/h (0 Bft) S 180 11,5 C 0,0 km/h (0 Bft)
03.08.2015 22:05 17,4 C 17,7 C 68 % 1012,8 hPa 0,0 mm 0,3 km/h (0 Bft) S 180 11,4 C 0,0 km/h (0 Bft)
03.08.2015 22:15 17,4 C 17,4 C 69 % 1012,8 hPa 0,0 mm 1,0 km/h (0 Bft) SO 135 11,7 C 0,0 km/h (0 Bft)
03.08.2015 22:20 17,6 C 17,5 C 69 % 1012,8 hPa 0,0 mm 0,8 km/h (0 Bft) O-NO 67 11,8 C 0,0 km/h (0 Bft)
03.08.2015 22:25 17,0 C 17,1 C 69 % 1012,8 hPa 0,0 mm 0,0 km/h (0 Bft) W 270 11,3 C 0,0 km/h (0 Bft)
03.08.2015 22:30 16,9 C 16,8 C 69 % 1012,8 hPa 0,0 mm 0,0 km/h (0 Bft) SW 225 11,2 C 0,0 km/h (0 Bft)
03.08.2015 22:35 16,8 C 17,1 C 70 % 1012,8 hPa 0,0 mm 0,3 km/h (0 Bft) SW 225 11,3 C 0,0 km/h (0 Bft)
03.08.2015 22:40 16,8 C 16,8 C 70 % 1012,8 hPa 0,0 mm 1,6 km/h (1 Bft) NO 45 11,3 C 0,0 km/h (0 Bft)
03.08.2015 22:45 16,4 C 16,4 C 70 % 1012,8 hPa 0,0 mm 1,0 km/h (0 Bft) O-SO 112 10,9 C 0,0 km/h (0 Bft)
03.08.2015 22:50 16,2 C 16,1 C 70 % 1012,6 hPa 0,0 mm 0,0 km/h (0 Bft) O-SO 112 10,7 C 0,0 km/h (0 Bft)
03.08.2015 22:55 16,1 C 16,0 C 70 % 1012,6 hPa 0,0 mm 0,0 km/h (0 Bft) N-NO 22 10,6 C 0,0 km/h (0 Bft)
03.08.2015 23:00 16,1 C 15,9 C 71 % 1012,6 hPa 0,0 mm 0,0 km/h (0 Bft) NO 45 10,8 C 0,0 km/h (0 Bft)
03.08.2015 23:05 15,8 C 15,6 C 72 % 1012,6 hPa 0,0 mm 0,0 km/h (0 Bft) NO 45 10,8 C 0,0 km/h (0 Bft)
03.08.2015 23:10 15,5 C 15,3 C 72 % 1012,6 hPa 0,0 mm 0,0 km/h (0 Bft) NO 45 10,5 C 0,0 km/h (0 Bft)
03.08.2015 23:15 15,3 C 15,1 C 73 % 1012,6 hPa 0,0 mm 0,0 km/h (0 Bft) NO 45 10,5 C 0,0 km/h (0 Bft)
03.08.2015 23:20 15,3 C 15,0 C 74 % 1012,6 hPa 0,0 mm 0,0 km/h (0 Bft) O-NO 67 10,7 C 0,0 km/h (0 Bft)
03.08.2015 23:25 15,5 C 15,2 C 74 % 1012,6 hPa 0,0 mm 0,0 km/h (0 Bft) O-NO 67 10,9 C 0,0 km/h (0 Bft)
03.08.2015 23:30 15,2 C 14,9 C 74 % 1012,4 hPa 0,0 mm 0,0 km/h (0 Bft) NO 45 10,6 C 0,0 km/h (0 Bft)
03.08.2015 23:35 15,1 C 14,8 C 74 % 1012,4 hPa 0,0 mm 0,0 km/h (0 Bft) NO 45 10,5 C 0,0 km/h (0 Bft)
03.08.2015 23:40 14,8 C 14,5 C 75 % 1012,4 hPa 0,0 mm 0,0 km/h (0 Bft) NO 45 10,4 C 0,0 km/h (0 Bft)
03.08.2015 23:45 14,8 C 14,5 C 75 % 1012,4 hPa 0,0 mm 0,0 km/h (0 Bft) O-NO 67 10,4 C 0,0 km/h (0 Bft)
03.08.2015 23:50 15,2 C 14,8 C 76 % 1012,4 hPa 0,0 mm 0,0 km/h (0 Bft) O-SO 112 11,0 C 0,0 km/h (0 Bft)
03.08.2015 23:55 14,9 C 14,6 C 76 % 1012,4 hPa 0,0 mm 0,0 km/h (0 Bft) NO 45 10,7 C 0,0 km/h (0 Bft)
_ Min-Zeit 06:20 06:20 16:10 23:55 - 23:55 - - 06:20 23:55
Minimum _ 8,8 C 8,7 C 42 % 1012,4 hPa - 0,0 km/h (0 Bft) - - 7,3 C 0,0 km/h (0 Bft)
_ Max-Zeit 15:50 16:20 07:15 13:45 23:55 14:55 - - 12:45 14:50
Maximum _ 28,4 C 33,0 C 90 % 1015,3 hPa 0,0 mm 10,6 km/h
NW (2 Bft)
- - 16,2 C 25,4 km/h
NW (4 Bft)
Durchschnitt _ 19,0 C 22,1 C 66 % 1013,5 hPa #0,0 mm 2,3 km/h (1 Bft) NW - 11,9 C 2,9 km/h (1 Bft)